Location: Aalsum
(53.3404°N, 6.0062°E)
Time: 05:14:13
(UTC+00:00)

Feng Yun 1-1 Rocket - Pass Details

Date: 28 January 2023
Orbit: 830 x 933 km, 99.1° (Epoch: 24 March)

Event Time Altitude Azimuth Distance (km) Brightness Sun altitude
Rises 18:46:52 0° 166° (SSE) 3,480 7.3 -23.0°
Reaches altitude 10° 18:49:17 10° 167° (SSE) 2,530 6.5 -23.4°
Maximum altitude 18:54:54 78° 254° (WSW) 887 4.3 -24.2°
Drops below altitude 10° 19:00:26 10° 341° (NNW) 2,484 6.9 -25.1°
Sets 19:02:47 0° 343° (NNW) 3,413 7.6 -25.4°
